Temperature
21 22 23 23 23 23 22 20 20 20 19 19 18 18 18 19 19 19 19 19 19 19 19 18 18 18 18 18 17 17 17 17 17 17 17 17 17 17 17 17 16 16 16 16
21 22 23 23 23 23 23 22 21 20 19 18 18 18 18 18 19 18 19 19 19 19 19 18 18 18 18 18 18 17 17 17 17 17 17 17 17 17 17 17 16 16 16 16
19 21 21 20 21 21 21 21 20 19 18 17 17 17 17 17 18 18 18 18 19 19 19 19 18 18 18 18 18 18 18 17 17 17 17 17 17 17 17 17 16 16 16 16
17 19 19 19 20 21 20 19 19 18 17 17 16 16 17 17 17 17 18 18 18 18 18 18 18 18 18 18 18 18 18 18 17 17 17 17 17 17 17 17 16 16 16 16
15 17 18 19 19 19 19 17 18 17 17 16 16 16 16 17 17 17 17 17 18 18 18 18 18 18 18 18 18 17 17 17 17 17 17 17 17 17 16 16 16 16 16 16
16 17 18 18 19 19 19 17 17 16 16 16 16 15 15 16 17 17 17 17 17 18 18 18 17 18 18 17 17 17 17 17 17 17 17 17 17 17 16 16 16 16 16 16
16 16 16 16 17 19 18 16 16 16 16 16 15 14 15 15 16 16 16 16 16 17 17 17 17 17 17 17 17 17 17 17 17 17 17 17 17 16 16 16 16 15 15 15
15 15 16 15 16 16 15 15 15 15 15 15 14 14 14 14 15 15 15 16 16 16 16 16 16 17 17 16 16 16 16 16 16 16 16 16 16 16 16 15 15 15 15 15
14 14 14 14 14 15 15 15 15 15 15 14 14 13 13 13 14 14 14 15 15 15 15 15 15 16 16 15 15 16 16 16 16 16 16 15 15 15 15 15 15 14 14 14
13 13 13 14 14 15 15 15 15 15 14 14 13 13 13 13 13 13 13 14 14 14 14 14 14 14 15 15 15 15 15 15 15 15 15 15 15 14 14 14 14 13 13 13
13 13 13 13 14 14 14 14 14 14 14 13 13 12 12 12 12 12 13 13 13 13 13 13 13 13 14 14 14 14 14 14 14 14 14 14 14 13 13 13 13 13 13 12
13 13 12 13 13 14 14 13 13 13 13 12 12 12 12 11 12 12 12 12 12 12 12 12 13 13 13 13 14 14 13 13 13 13 13 13 13 13 12 12 12 12 12 12
13 14 13 13 13 13 13 13 13 12 12 12 11 11 11 11 11 11 11 11 11 11 12 12 12 12 12 13 13 13 13 13 13 13 13 13 13 12 12 11 11 11 11 11
13 13 12 12 12 12 12 12 12 12 11 11 11 11 11 11 11 11 11 11 11 11 11 11 12 12 12 12 12 12 12 12 12 12 12 12 12 12 12 11 11 11 10 10
13 13 12 12 12 12 12 12 11 11 11 11 11 11 11 11 11 10 11 11 11 11 11 11 11 12 12 12 12 12 12 12 12 12 12 12 11 11 11 10 10 10 10 9
12 12 12 12 11 11 11 11 11 11 11 11 11 11 10 10 10 10 10 11 11 10 11 11 11 11 11 11 11 11 11 11 11 11 11 11 11 10 10 10 10 9 9 9
11 11 11 11 11 11 11 11 11 11 11 11 11 10 10 10 10 10 10 10 10 10 10 10 10 11 11 11 11 11 11 11 11 11 11 10 10 10 9 9 9 9 8 8
13 12 12 12 11 11 11 11 11 11 11 11 10 10 10 10 10 10 10 10 10 10 10 10 10 10 10 10 10 10 10 10 10 10 10 9 9 9 8 8 8 8 7 7
12 12 12 12 11 11 11 11 11 11 11 11 10 10 10 10 10 10 10 10 10 9 9 9 9 10 10 10 10 10 10 9 9 9 9 8 8 8 7 7 7 7 6 6
12 12 12 12 11 11 11 11 11 11 11 11 10 10 10 10 10 9 9 9 9 9 9 9 9 9 9 9 9 9 9 9 8 8 8 7 7 7 6 6 6 6 5 5
12 12 12 11 11 11 11 11 11 10 10 10 10 10 10 9 9 9 9 9 8 8 8 8 8 8 8 8 8 8 8 8 7 7 7 7 6 6 6 5 5 5 5 5
11 11 11 11 11 11 11 11 10 10 10 10 10 10 9 9 9 9 8 8 8 8 8 8 8 8 8 8 7 7 7 7 7 6 6 6 5 5 5 5 4 4 4 4
11 11 11 11 10 10 10 10 10 10 10 10 9 9 9 9 9 8 8 7 7 7 7 7 7 7 7 7 7 6 6 6 6 5 5 5 5 4 4 4 4 4 4 3
10 10 10 10 10 10 10 10 9 9 9 9 9 9 9 8 8 8 7 7 7 7 7 7 7 6 6 6 6 6 6 5 5 5 5 4 4 4 4 4 3 3 3 3
10 10 10 10 10 9 9 9 9 9 9 8 8 8 8 8 8 7 7 7 7 7 6 6 6 6 6 6 5 5 5 5 5 4 4 4 4 3 3 3 3 3 3 3
9 9 9 9 9 9 9 9 9 8 8 8 8 7 7 7 7 7 6 6 6 6 6 6 5 5 5 5 5 5 4 4 4 4 4 4 3 3 3 3 3 2 2 2
9 9 9 9 9 9 9 8 8 8 8 8 7 7 7 7 6 6 6 6 6 5 5 5 5 5 5 5 4 4 4 4 4 4 4 3 3 3 3 3 2 2 2 2
Wind_Speed
3 3 3 1 1 3 4 7 7 7 8 8 8 7 5 4 6 8 7 6 7 6 5 5 5 6 6 7 7 8 8 8 9 9 9 9 9 9 9 9 10 9 9 9
2 2 3 3 2 1 2 4 6 7 3 2 4 4 4 4 5 7 7 7 7 7 6 6 6 6 6 6 7 7 8 8 8 9 9 9 9 9 9 9 8 9 9 9
1 2 4 3 3 2 3 2 6 5 4 6 6 6 4 4 4 5 5 5 5 5 5 5 6 6 7 8 7 7 8 8 8 9 9 9 10 9 9 9 8 8 8 8
2 4 2 4 1 7 10 7 5 6 6 9 9 7 5 4 5 5 4 4 3 2 2 3 3 4 5 6 7 7 7 7 8 9 9 9 9 9 8 7 7 7 7 7
3 2 1 2 2 3 7 4 4 7 8 9 9 8 7 5 5 4 4 3 2 2 2 2 2 4 6 6 6 7 7 7 8 9 9 9 9 8 7 6 6 5 5 5
4 4 4 3 4 1 8 3 1 6 7 7 4 4 1 3 5 6 6 5 4 3 3 3 2 4 6 6 5 5 5 6 6 7 8 8 8 8 6 6 6 5 4 4
4 3 3 3 6 2 5 5 3 5 5 5 3 4 4 5 7 7 7 7 7 7 7 5 3 6 7 6 4 3 3 4 5 5 5 6 6 6 6 6 6 5 4 3
4 4 5 4 3 2 4 2 5 6 7 10 9 9 9 8 9 9 9 9 9 9 9 8 8 8 9 6 4 5 6 6 6 5 5 6 7 6 6 6 6 5 5 3
3 3 1 1 3 3 4 5 5 6 8 11 11 10 10 9 9 10 9 9 9 10 11 10 10 9 10 6 6 8 9 9 8 8 7 7 7 7 6 5 5 4 4 3
3 2 3 4 5 6 7 6 7 8 10 12 13 12 11 9 9 10 9 9 9 11 12 11 10 10 9 7 8 10 10 9 8 9 9 8 7 6 6 5 5 5 4 3
3 4 5 5 5 7 10 11 13 12 12 13 15 14 12 11 10 10 9 9 9 10 11 10 10 10 9 8 9 11 10 9 8 7 7 8 8 7 6 5 4 5 4 3
4 6 5 4 3 7 11 12 12 13 13 11 13 14 14 12 10 10 9 9 10 11 10 9 9 9 9 8 8 9 9 8 6 6 5 6 8 8 13 10 11 11 8 6
4 6 8 7 8 8 11 12 12 13 13 14 12 13 14 13 11 10 10 10 10 10 9 9 9 10 8 7 8 9 8 6 5 5 5 5 6 7 6 7 11 12 11 10
10 10 9 7 8 9 12 13 14 13 12 13 13 13 13 13 12 11 10 9 9 10 9 9 10 10 8 8 9 9 8 8 7 5 6 6 6 6 6 6 6 5 7 10
7 8 10 11 11 12 12 14 15 13 13 13 12 12 12 12 12 10 9 9 10 11 11 10 11 9 8 9 9 9 7 6 6 6 6 6 6 7 7 7 7 5 5 6
11 11 13 13 13 12 13 14 14 13 12 12 12 12 12 12 12 11 10 10 11 10 9 9 9 8 8 9 9 8 8 12 10 8 8 8 8 7 7 6 6 6 6 5
12 11 12 12 12 12 11 11 11 11 12 13 12 12 13 13 12 12 10 10 10 9 9 9 8 8 9 10 9 7 7 9 13 10 9 8 8 8 7 7 6 6 5 7
9 10 11 13 14 13 12 11 11 11 12 12 12 12 12 12 12 10 9 9 10 11 10 8 8 9 10 9 8 7 7 8 8 8 8 8 8 8 7 7 7 7 5 6
11 11 12 13 13 13 12 11 11 10 11 12 12 12 11 11 10 9 9 10 10 9 7 8 11 11 10 10 10 8 9 9 9 8 8 10 10 8 8 7 7 6 6 6
11 12 14 14 13 13 13 12 12 12 11 12 12 12 11 10 10 10 10 9 5 3 3 7 9 9 8 9 11 8 9 9 9 9 8 8 8 8 7 7 7 6 6 6
13 13 14 14 13 12 13 13 13 12 11 12 12 12 11 9 9 8 9 7 4 5 7 10 8 7 7 8 11 8 9 9 8 8 8 7 7 7 7 6 6 6 6 6
12 13 14 14 14 13 12 12 13 13 12 12 12 12 11 10 9 8 7 4 3 7 7 6 6 8 10 10 8 8 8 8 8 7 7 7 7 6 6 6 6 6 6 5
12 13 14 14 14 13 13 12 12 12 12 11 11 11 10 8 6 7 5 2 4 8 7 6 9 13 13 9 7 8 8 8 7 7 6 6 6 6 6 6 5 5 5 5
13 13 13 13 14 14 13 12 12 11 11 11 10 10 10 8 6 4 5 6 8 9 7 8 12 13 11 7 7 7 7 7 7 6 6 6 5 5 5 5 5 5 5 6
12 12 13 13 13 11 12 12 12 11 11 9 9 8 7 6 6 5 5 6 8 8 6 8 12 11 7 6 6 6 6 6 6 6 5 5 5 5 4 4 4 4 4 4
11 10 10 10 9 9 9 9 9 8 8 8 7 6 6 5 6 5 5 6 7 8 6 5 6 7 6 6 6 6 5 5 6 5 5 4 5 4 4 4 5 4 3 3
11 10 9 9 8 8 8 8 8 7 7 8 7 5 6 6 5 5 6 5 5 5 5 4 4 5 5 5 5 4 4 4 3 4 4 4 3 3 3 4 3 4 4 4
Wind_Direction
180 176 134 138 169 144 140 162 167 191 181 205 197 189 180 159 143 141 149 158 164 171 170 167 169 171 173 176 175 175 172 172 176 176 176 174 175 177 178 181 186 183 182 187
24 43 77 56 6 109 115 126 131 130 172 188 132 106 113 135 142 146 157 162 171 176 171 171 176 181 176 177 178 173 174 179 179 174 176 178 179 179 179 183 183 182 186 189
324 338 57 8 336 98 95 91 136 148 171 128 110 101 105 116 119 132 150 156 164 171 174 186 188 185 184 183 173 170 178 181 178 176 181 185 184 180 183 185 184 184 188 188
109 60 159 233 347 97 93 61 69 99 115 116 116 108 83 81 103 110 124 134 149 151 175 198 186 180 177 171 167 172 179 184 182 181 185 182 176 180 185 184 184 189 190 189
111 127 231 303 2 93 112 61 67 107 110 115 119 90 58 52 76 86 99 109 120 133 155 167 172 175 162 160 164 171 183 190 188 184 183 180 181 181 179 174 175 176 174 176
123 134 201 241 311 347 105 89 82 120 129 137 127 107 115 50 62 69 66 69 69 77 89 106 125 140 138 141 147 169 189 191 182 176 174 174 176 173 165 161 165 159 154 157
136 157 233 281 303 331 134 188 168 129 132 116 102 135 124 80 69 70 68 64 65 69 68 62 77 104 106 104 115 139 137 131 131 139 147 150 145 140 137 140 137 134 133 126
137 161 224 304 6 108 164 132 117 110 108 106 106 104 94 84 77 71 67 63 66 73 66 53 60 85 90 83 82 87 92 95 97 105 115 118 115 118 123 132 132 134 130 113
158 180 178 69 105 102 121 115 113 118 119 119 112 107 99 87 81 75 71 68 67 74 68 55 51 68 78 66 76 86 87 85 84 84 82 86 100 107 105 110 120 120 118 116
95 96 94 79 83 84 97 108 107 116 121 118 116 114 106 98 90 81 70 68 71 74 71 60 52 56 60 62 73 86 90 87 86 87 83 76 79 86 95 98 106 106 107 108
106 121 96 74 82 101 102 99 99 101 105 112 114 112 108 101 92 87 79 70 70 73 72 64 57 53 49 55 71 77 81 86 83 83 89 84 74 62 74 71 101 118 118 114
184 179 143 132 108 112 109 107 110 110 104 103 109 112 108 101 94 88 83 77 74 70 67 60 59 54 43 47 66 78 78 77 84 89 91 96 96 78 56 65 69 75 83 96
137 118 114 118 104 104 107 110 110 109 109 108 105 108 106 102 95 90 83 78 75 71 67 61 59 53 42 46 63 72 78 78 81 91 97 101 106 107 95 63 61 64 65 71
117 111 105 110 113 110 109 108 105 101 103 106 106 104 103 100 95 90 83 78 76 70 62 58 56 45 34 45 60 67 72 75 81 86 93 96 99 100 100 96 76 51 44 59
101 109 122 121 113 111 112 112 109 108 107 103 102 103 103 100 96 91 84 79 76 69 59 56 52 37 30 45 55 60 68 70 71 77 83 87 88 89 88 85 81 70 55 47
109 110 116 117 117 119 119 118 116 116 115 112 108 105 103 100 96 88 79 77 76 68 59 55 48 33 37 49 56 57 63 70 75 76 76 79 81 85 86 86 81 73 62 49
126 130 130 129 126 123 122 122 121 121 120 117 115 111 106 101 95 87 80 75 73 68 59 55 47 40 46 53 62 66 66 66 70 74 75 77 80 82 81 81 79 74 63 56
134 138 140 139 135 129 126 122 119 118 120 120 116 110 108 105 102 96 89 81 73 61 47 44 51 54 53 54 63 67 70 70 70 74 75 75 77 78 77 75 73 71 60 54
127 129 130 129 129 127 125 124 121 119 118 116 113 111 109 107 103 96 87 79 72 62 35 38 55 55 51 51 64 68 71 71 71 71 74 75 74 72 72 72 71 66 60 60
120 122 122 121 121 123 124 122 118 115 115 114 111 108 105 104 103 97 87 76 65 69 57 57 56 52 50 55 68 71 72 74 75 75 74 75 75 73 71 72 71 66 60 58
122 123 124 122 119 118 120 121 119 116 114 113 113 113 110 105 101 97 92 80 40 51 63 62 59 54 54 64 69 71 73 76 76 75 75 75 75 73 70 67 65 62 58 55
122 123 122 121 118 114 113 113 114 113 111 109 110 111 110 106 99 89 81 91 79 73 71 62 61 64 67 72 71 73 75 77 77 76 75 74 74 72 67 64 63 63 59 55
113 112 113 115 115 113 108 107 108 108 108 110 111 111 110 108 108 107 95 70 79 78 76 72 74 72 74 73 75 75 75 77 78 78 78 76 75 74 73 70 66 62 59 57
109 109 109 109 109 108 105 104 103 104 104 103 105 109 111 107 93 88 107 99 89 85 81 77 75 77 78 76 77 76 76 78 80 80 79 77 76 74 74 73 67 61 62 64
107 107 110 110 109 111 112 110 105 103 101 100 99 97 101 109 115 114 105 102 97 89 81 73 73 77 80 86 85 83 82 87 91 89 84 82 81 80 77 72 68 65 61 57
104 105 106 109 114 115 114 111 109 109 109 106 101 99 97 96 101 102 101 100 96 91 84 76 77 77 80 89 92 89 86 88 89 88 89 88 86 83 78 73 68 71 70 60
95 96 98 98 98 104 109 112 112 113 114 116 114 110 107 103 101 101 99 97 96 92 89 85 82 86 90 90 88 88 86 85 90 95 93 89 88 85 81 84 85 79 73 64
Height
1434 1430 1431 1434 1435 1436 1442 1450 1459 1458 1458 1455 1453 1453 1453 1454 1454 1456 1458 1461 1462 1464 1466 1467 1469 1470 1472 1473 1475 1477 1478 1480 1483 1487 1491 1494 1498 1501 1505 1509 1512 1515 1518 1521
1436 1430 1430 1435 1435 1434 1437 1440 1445 1449 1455 1450 1452 1453 1454 1455 1456 1456 1457 1459 1461 1464 1465 1466 1468 1470 1471 1473 1474 1476 1478 1480 1483 1486 1489 1493 1497 1500 1503 1506 1510 1513 1515 1518
1448 1437 1437 1448 1441 1438 1440 1441 1442 1451 1453 1450 1453 1454 1455 1456 1457 1457 1458 1459 1461 1462 1464 1465 1467 1469 1470 1472 1474 1476 1477 1480 1482 1485 1488 1491 1495 1498 1501 1504 1507 1510 1512 1514
1451 1448 1460 1451 1436 1434 1439 1443 1443 1446 1448 1450 1453 1456 1456 1457 1457 1459 1459 1460 1461 1462 1463 1465 1466 1468 1470 1472 1473 1475 1476 1479 1481 1484 1487 1490 1493 1496 1499 1502 1504 1507 1509 1512
1457 1459 1455 1444 1439 1438 1443 1452 1448 1449 1451 1453 1454 1456 1458 1459 1459 1459 1459 1460 1461 1462 1463 1465 1466 1467 1469 1470 1472 1474 1476 1477 1480 1482 1485 1488 1490 1493 1496 1499 1502 1504 1506 1508
1453 1458 1461 1449 1439 1437 1441 1456 1449 1449 1452 1453 1454 1460 1462 1460 1459 1460 1460 1461 1461 1463 1464 1465 1465 1466 1467 1469 1471 1473 1474 1476 1478 1481 1483 1485 1488 1490 1493 1496 1498 1501 1503 1505
1451 1457 1453 1444 1439 1437 1452 1456 1449 1450 1452 1452 1455 1459 1461 1461 1461 1461 1461 1462 1462 1463 1464 1464 1466 1466 1467 1468 1470 1472 1474 1475 1477 1479 1481 1483 1485 1488 1491 1493 1496 1498 1500 1502
1450 1457 1457 1442 1441 1445 1447 1445 1447 1450 1452 1453 1456 1459 1461 1462 1463 1463 1463 1463 1464 1464 1464 1465 1466 1467 1467 1469 1470 1472 1473 1475 1476 1478 1480 1482 1484 1486 1489 1491 1493 1495 1497 1498
1447 1450 1444 1442 1442 1443 1443 1445 1448 1450 1452 1454 1457 1460 1462 1464 1465 1465 1466 1466 1466 1466 1466 1468 1468 1468 1469 1471 1472 1473 1474 1475 1476 1478 1480 1481 1483 1485 1488 1490 1491 1493 1495 1496
1444 1445 1443 1444 1444 1444 1445 1446 1448 1451 1453 1455 1458 1461 1463 1466 1467 1468 1469 1468 1468 1468 1469 1470 1471 1471 1472 1473 1474 1474 1474 1476 1478 1479 1480 1482 1483 1485 1487 1489 1491 1492 1494 1495
1444 1445 1445 1446 1447 1447 1448 1449 1451 1454 1456 1457 1459 1463 1465 1467 1469 1470 1472 1472 1472 1472 1472 1474 1475 1475 1475 1476 1476 1476 1477 1478 1480 1481 1482 1483 1485 1487 1489 1490 1492 1493 1494 1496
1444 1443 1445 1448 1449 1449 1449 1451 1454 1456 1459 1462 1462 1465 1468 1470 1472 1474 1475 1476 1476 1476 1477 1478 1478 1479 1479 1479 1480 1479 1480 1481 1482 1484 1485 1486 1487 1489 1491 1493 1494 1495 1496 1497
1439 1441 1443 1447 1449 1450 1451 1454 1457 1459 1461 1464 1467 1469 1471 1473 1476 1478 1479 1480 1481 1481 1482 1483 1482 1483 1483 1483 1483 1483 1484 1485 1486 1487 1488 1489 1490 1492 1493 1495 1496 1497 1498 1498
1439 1442 1446 1449 1451 1453 1455 1457 1460 1463 1466 1468 1470 1473 1475 1477 1480 1482 1484 1485 1486 1486 1487 1487 1486 1487 1487 1487 1487 1487 1488 1489 1490 1490 1491 1492 1493 1494 1495 1496 1497 1498 1499 1499
1442 1444 1447 1451 1454 1456 1458 1461 1464 1467 1470 1473 1475 1477 1480 1482 1484 1486 1488 1489 1490 1490 1491 1491 1491 1491 1491 1491 1491 1491 1491 1492 1493 1493 1494 1495 1496 1497 1498 1498 1499 1500 1500 1500
1445 1448 1450 1453 1456 1460 1462 1465 1467 1471 1474 1476 1479 1482 1484 1486 1488 1490 1492 1493 1493 1494 1495 1495 1495 1495 1495 1495 1494 1495 1495 1496 1496 1496 1497 1498 1499 1499 1500 1500 1500 1501 1500 1501
1446 1450 1453 1456 1459 1462 1465 1468 1471 1474 1477 1480 1483 1486 1488 1490 1492 1494 1496 1497 1497 1498 1499 1499 1499 1499 1499 1498 1498 1498 1498 1499 1499 1499 1500 1500 1501 1501 1502 1502 1502 1502 1502 1502
1447 1450 1454 1457 1460 1464 1469 1472 1475 1478 1481 1484 1487 1490 1492 1494 1496 1498 1500 1501 1501 1502 1502 1503 1503 1502 1502 1502 1501 1501 1501 1502 1502 1502 1503 1503 1503 1503 1504 1504 1504 1503 1503 1503
1451 1454 1457 1461 1463 1467 1471 1475 1479 1482 1485 1488 1491 1493 1496 1498 1500 1501 1503 1504 1504 1504 1506 1506 1506 1505 1505 1505 1505 1504 1504 1504 1504 1505 1505 1505 1505 1505 1505 1505 1505 1505 1504 1503
1454 1456 1460 1463 1467 1470 1474 1478 1482 1485 1489 1492 1494 1497 1499 1502 1503 1504 1505 1506 1507 1508 1509 1509 1509 1508 1508 1508 1507 1507 1507 1507 1507 1507 1507 1507 1507 1507 1507 1507 1507 1506 1505 1504
1456 1459 1463 1466 1470 1474 1478 1481 1485 1488 1492 1495 1497 1499 1502 1504 1506 1507 1508 1509 1511 1511 1511 1511 1511 1511 1511 1510 1510 1510 1510 1509 1509 1509 1509 1509 1509 1509 1509 1509 1508 1508 1507 1506
1459 1462 1465 1469 1473 1477 1481 1485 1488 1491 1495 1497 1500 1502 1504 1507 1508 1510 1511 1512 1513 1513 1513 1513 1513 1513 1513 1513 1512 1512 1512 1512 1512 1512 1512 1511 1511 1511 1511 1510 1510 1509 1508 1507
1462 1465 1469 1473 1476 1480 1484 1488 1491 1494 1497 1500 1502 1504 1507 1509 1510 1511 1513 1514 1515 1515 1515 1515 1515 1515 1515 1515 1515 1514 1514 1514 1514 1514 1513 1513 1513 1512 1512 1512 1511 1510 1509 1508
1466 1470 1473 1477 1480 1484 1487 1491 1494 1497 1500 1503 1505 1507 1509 1511 1513 1514 1515 1516 1517 1517 1517 1517 1517 1517 1517 1516 1516 1516 1516 1516 1516 1516 1515 1515 1515 1514 1514 1513 1512 1511 1510 1509
1470 1474 1477 1481 1484 1488 1491 1494 1498 1501 1503 1506 1508 1510 1512 1513 1514 1515 1517 1518 1518 1518 1518 1519 1519 1519 1518 1518 1518 1518 1518 1518 1517 1517 1517 1517 1516 1515 1515 1514 1513 1512 1511 1510
1475 1478 1482 1485 1488 1492 1495 1498 1500 1503 1506 1508 1511 1513 1514 1515 1516 1517 1518 1519 1519 1520 1520 1520 1520 1520 1520 1520 1520 1520 1519 1519 1519 1519 1518 1518 1517 1517 1516 1515 1514 1513 1512 1510
1481 1484 1487 1490 1493 1496 1498 1501 1503 1506 1508 1510 1512 1514 1515 1517 1518 1519 1520 1520 1521 1521 1521 1521 1521 1521 1522 1521 1521 1521 1521 1521 1521 1520 1520 1519 1518 1518 1517 1516 1515 1514 1512 1511